Tracking 32579 objects as of 16-Dec-2025
HD Live streaming from Space Station
objects crossing your sky now

IGS O-8

Track IGS O-8 now!
10-day predictions
IGS O-8 is classified as:


NORAD ID: 58762
Int'l Code: 2024-010A
Perigee: 487.0 km
Apogee: 492.9 km
Inclination: 97.4 °
Period: 94.3 minutes
Semi major axis: 6860 km
RCS: Unknown
Launch date: January 12, 2024
Source: Japan (JPN)
Launch site: TANEGASHIMA SPACE CENTER (TNSTA)
Your satellite tracking list
Your tracking list is empty




NASA's NSSDC Master Catalog

Two Line Element Set (TLE):
1 58762U 24010A   25211.03312546 0.00000000  00000-0  00000-0 0    03
2 58762  97.3502 332.6017 0004332  72.2938 287.7061 15.27657128    06
Source of the keplerian elements: McCants